TimeCST,TemperatureF,Dew PointF,Humidity,Sea Level PressureIn,VisibilityMPH,Wind Direction,Wind SpeedMPH,Gust SpeedMPH,PrecipitationIn,Events,Conditions,WindDirDegrees,DateUTC
12:13 AM,32.7,31.6,96,30.03,4.0,West,3.5,-,N/A,,Overcast,260,2013-11-21 06:13:00
12:32 AM,32.9,32.0,96,30.03,5.0,Calm,Calm,-,N/A,,Overcast,0,2013-11-21 06:32:00
12:52 AM,32.4,31.3,96,30.04,5.0,WNW,6.9,-,N/A,,Overcast,290,2013-11-21 06:52:00
1:13 AM,31.6,29.3,91,30.04,7.0,NW,5.8,-,N/A,,Overcast,310,2013-11-21 07:13:00
1:32 AM,31.8,29.5,91,30.05,5.0,WNW,9.2,-,N/A,,Overcast,290,2013-11-21 07:32:00
1:53 AM,31.3,29.3,92,30.06,5.0,WNW,9.2,-,N/A,,Overcast,290,2013-11-21 07:53:00
2:13 AM,31.1,28.9,92,30.06,5.0,WNW,8.1,-,N/A,,Overcast,290,2013-11-21 08:13:00
2:32 AM,30.7,28.6,92,30.08,5.0,WNW,10.4,-,N/A,,Overcast,300,2013-11-21 08:32:00
2:53 AM,30.0,28.0,92,30.09,5.0,WNW,9.2,-,N/A,,Overcast,300,2013-11-21 08:53:00
3:13 AM,29.7,27.9,93,30.10,5.0,WNW,10.4,-,N/A,,Overcast,300,2013-11-21 09:13:00
3:33 AM,28.4,26.4,92,30.11,7.0,WNW,11.5,-,N/A,,Overcast,300,2013-11-21 09:33:00
3:53 AM,27.5,25.5,92,30.11,7.0,WNW,10.4,-,N/A,,Overcast,300,2013-11-21 09:53:00
4:13 AM,26.6,25.0,94,30.13,4.0,WNW,13.8,19.6,N/A,,Overcast,300,2013-11-21 10:13:00
4:32 AM,26.2,24.8,94,30.13,4.0,WNW,15.0,-,N/A,,Overcast,300,2013-11-21 10:32:00
4:53 AM,25.2,23.9,95,30.14,4.0,NW,15.0,21.9,N/A,,Overcast,310,2013-11-21 10:53:00
5:13 AM,24.8,23.5,95,30.16,7.0,NW,18.4,24.2,N/A,,Overcast,310,2013-11-21 11:13:00
5:32 AM,24.3,22.6,94,30.17,10.0,NW,13.8,23.0,N/A,,Overcast,310,2013-11-21 11:32:00
5:53 AM,23.9,21.6,91,30.18,10.0,NW,15.0,23.0,N/A,,Overcast,320,2013-11-21 11:53:00
6:13 AM,23.5,20.8,89,30.19,10.0,NW,17.3,25.3,N/A,,Overcast,320,2013-11-21 12:13:00
6:33 AM,22.8,19.4,87,30.21,10.0,NW,13.8,24.2,N/A,,Overcast,310,2013-11-21 12:33:00
6:52 AM,22.6,19.2,87,30.22,10.0,NW,16.1,19.6,N/A,,Overcast,310,2013-11-21 12:52:00
7:13 AM,22.1,17.4,82,30.24,10.0,NW,13.8,24.2,N/A,,Overcast,310,2013-11-21 13:13:00
7:33 AM,21.9,16.7,80,30.24,10.0,NW,16.1,27.6,N/A,,Overcast,310,2013-11-21 13:33:00
7:53 AM,21.6,15.8,78,30.25,10.0,NW,17.3,26.5,N/A,,Overcast,320,2013-11-21 13:53:00
8:12 AM,21.6,15.8,78,30.26,10.0,NW,15.0,21.9,N/A,,Overcast,320,2013-11-21 14:12:00
8:32 AM,21.6,15.3,77,30.27,10.0,NNW,15.0,23.0,N/A,,Overcast,330,2013-11-21 14:32:00
8:53 AM,21.6,15.1,76,30.29,10.0,NW,19.6,24.2,N/A,,Overcast,320,2013-11-21 14:53:00
9:12 AM,21.6,15.1,76,30.29,10.0,NW,11.5,19.6,N/A,,Overcast,320,2013-11-21 15:12:00
9:33 AM,21.7,14.9,75,30.30,10.0,NNW,15.0,23.0,N/A,,Overcast,330,2013-11-21 15:33:00
9:52 AM,21.9,14.9,74,30.30,10.0,NNW,17.3,21.9,N/A,,Overcast,330,2013-11-21 15:52:00
10:13 AM,22.6,15.4,74,30.31,10.0,NW,17.3,24.2,N/A,,Overcast,320,2013-11-21 16:13:00
10:32 AM,23.2,15.6,73,30.31,10.0,NNW,12.7,20.7,N/A,,Overcast,340,2013-11-21 16:32:00
10:53 AM,23.0,14.9,71,30.31,10.0,NNW,16.1,24.2,N/A,,Overcast,340,2013-11-21 16:53:00
11:13 AM,23.5,15.3,71,30.32,10.0,NNW,18.4,25.3,N/A,,Overcast,340,2013-11-21 17:13:00
11:33 AM,23.0,15.4,73,30.33,10.0,NNW,16.1,23.0,N/A,,Overcast,340,2013-11-21 17:33:00
11:52 AM,23.0,15.4,73,30.34,10.0,NNW,13.8,18.4,N/A,,Overcast,330,2013-11-21 17:52:00
12:13 PM,23.0,16.0,74,30.35,4.0,NNW,12.7,20.7,N/A,,Haze,340,2013-11-21 18:13:00
12:33 PM,22.8,17.8,81,30.35,1.5,NNW,12.7,-,N/A,Snow,Light Snow,330,2013-11-21 18:33:00
12:52 PM,22.6,18.1,83,30.35,1.5,NNW,12.7,-,N/A,Snow,Light Snow,340,2013-11-21 18:52:00
1:13 PM,24.1,18.0,77,30.35,5.0,NNW,12.7,-,N/A,,Haze,340,2013-11-21 19:13:00
1:33 PM,24.8,16.5,71,30.35,10.0,NNW,13.8,23.0,N/A,,Overcast,330,2013-11-21 19:33:00
1:52 PM,23.7,16.9,75,30.36,10.0,NNW,12.7,19.6,N/A,,Overcast,340,2013-11-21 19:52:00
2:13 PM,23.9,15.1,69,30.37,10.0,NNW,12.7,21.9,N/A,,Overcast,330,2013-11-21 20:13:00
2:33 PM,23.9,14.5,67,30.37,10.0,NNW,10.4,18.4,N/A,,Overcast,340,2013-11-21 20:33:00
2:53 PM,24.4,14.2,65,30.38,10.0,NNW,13.8,19.6,N/A,,Overcast,340,2013-11-21 20:53:00
3:13 PM,24.6,14.2,65,30.38,10.0,NNW,10.4,17.3,N/A,,Overcast,340,2013-11-21 21:13:00
3:32 PM,24.8,14.0,64,30.39,10.0,NNW,11.5,18.4,N/A,,Overcast,340,2013-11-21 21:32:00
3:53 PM,24.8,13.8,63,30.40,10.0,NNW,12.7,16.1,N/A,,Overcast,340,2013-11-21 21:53:00
4:13 PM,24.4,12.9,62,30.41,10.0,NNW,12.7,18.4,N/A,,Overcast,330,2013-11-21 22:13:00
4:33 PM,24.3,12.4,61,30.43,10.0,NNW,10.4,-,N/A,,Overcast,340,2013-11-21 22:33:00
4:53 PM,23.9,12.0,61,30.43,10.0,NNW,11.5,18.4,N/A,,Overcast,330,2013-11-21 22:53:00
5:13 PM,23.7,11.5,60,30.44,10.0,NNW,11.5,17.3,N/A,,Overcast,340,2013-11-21 23:13:00
5:33 PM,23.7,12.2,61,30.45,10.0,NNW,9.2,16.1,N/A,,Overcast,330,2013-11-21 23:33:00
5:52 PM,23.0,11.3,61,30.45,10.0,NNW,13.8,18.4,N/A,,Overcast,330,2013-11-21 23:52:00
6:13 PM,23.0,10.9,60,30.46,10.0,NW,11.5,21.9,N/A,,Overcast,320,2013-11-22 00:13:00
6:33 PM,22.5,12.0,64,30.47,10.0,NW,10.4,18.4,N/A,,Overcast,320,2013-11-22 00:33:00
6:53 PM,21.7,11.3,64,30.48,10.0,NW,13.8,19.6,N/A,,Overcast,320,2013-11-22 00:53:00
7:13 PM,21.0,11.5,67,30.48,10.0,NW,12.7,18.4,N/A,,Overcast,310,2013-11-22 01:13:00
7:32 PM,20.8,11.1,66,30.49,10.0,NW,12.7,18.4,N/A,,Overcast,320,2013-11-22 01:32:00
7:53 PM,20.1,10.4,66,30.49,10.0,NNW,16.1,20.7,N/A,,Overcast,330,2013-11-22 01:53:00
8:12 PM,19.4,9.9,66,30.50,10.0,NNW,12.7,21.9,N/A,,Overcast,330,2013-11-22 02:12:00
8:33 PM,19.4,9.7,66,30.50,10.0,NW,12.7,-,N/A,,Mostly Cloudy,320,2013-11-22 02:33:00
8:52 PM,19.0,9.5,66,30.51,10.0,NNW,11.5,20.7,N/A,,Mostly Cloudy,330,2013-11-22 02:52:00
9:12 PM,18.9,9.7,67,30.52,10.0,NNW,11.5,17.3,N/A,,Mostly Cloudy,330,2013-11-22 03:12:00
9:32 PM,18.5,10.4,71,30.53,10.0,NW,11.5,16.1,N/A,,Mostly Cloudy,320,2013-11-22 03:32:00
9:52 PM,18.1,10.4,72,30.53,10.0,NW,11.5,-,N/A,,Overcast,310,2013-11-22 03:52:00
10:13 PM,18.0,10.0,71,30.53,10.0,NW,9.2,-,N/A,,Overcast,310,2013-11-22 04:13:00
10:33 PM,18.0,9.5,70,30.54,10.0,NW,11.5,-,N/A,,Overcast,320,2013-11-22 04:33:00
10:53 PM,17.6,9.0,69,30.55,10.0,NW,8.1,-,N/A,,Mostly Cloudy,320,2013-11-22 04:53:00
11:13 PM,17.4,8.4,68,30.55,10.0,NNW,9.2,-,N/A,,Mostly Cloudy,330,2013-11-22 05:13:00
11:32 PM,17.2,8.6,69,30.55,10.0,NW,9.2,-,N/A,,Scattered Clouds,320,2013-11-22 05:32:00
11:52 PM,16.9,8.4,69,30.55,10.0,NW,6.9,-,N/A,,Scattered Clouds,320,2013-11-22 05:52:00